Location: Recife
(8.0585°S, 34.8848°W)
Time: 10:12:29
(UTC-03:00)

Altair - Pass Details

Date: 17 April 2026
Orbit: 1501 x 1682 km, 47.2° (Epoch: 20 May)

Event Time Altitude Azimuth Distance (km) Brightness Sun altitude
Rises 07:02:13 0° 208° (SSW) 4,831 9.7 23.4°
Reaches altitude 10° 07:05:38 10° 200° (SSW) 3,867 9.4 24.2°
Maximum altitude 07:14:42 39° 134° (SE) 2,322 9.1 26.4°
Drops below altitude 10° 07:23:53 10° 68° (ENE) 3,936 11.4 28.6°
Sets 07:27:22 0° 61° (ENE) 4,924 11.3 29.4°
